Regional Weather Roundup
Issued by NWS

Home | Current Version | Previous Version | Graphics & Text | Print | Product List | Glossary Off
Versions: 1 2 3 4 5 6 7 8 9 10 11 12 13 14 15 16 17 18 19 20 21 22 23 24 25 26 27 28 29 30 31 32 33 34 35 36 37 38 39 40 41 42 43 44 45 46 47 48 49 50

000
ASUS43 KDMX 272006
RWRIA

WEATHER ROUNDUP FOR IOWA
NATIONAL WEATHER SERVICE DES MOINES IA
300 PM CDT THU APR 27 2017

NOTE: "FAIR" INDICATES FEW OR NO CLOUDS BELOW 12,000 FEET WITH NO
SIGNIFICANT WEATHER AND/OR OBSTRUCTIONS TO VISIBILITY.

* - THESE STATIONS ARE NOT NWS STATIONS...THUS NOT UNDER NWS
QUALITY CONTROL.  THEY ALSO DO NOT REPORT WEATHER SUCH
AS PRECIPITATION OR FOG.

IAZ001>003-012>014-020>022-031>034-043>046-272100-
   NORTHWEST IOWA

CITY           SKY/WX    TMP DP  RH WIND       PRES   REMARKS
CARROLL *      CLOUDY    48  34  57 NW12G21   29.69S
CHEROKEE *     CLOUDY    43  33  68 NW9G16    29.70F
DENISON *      PTSUNNY   50  36  57 NW12      29.71S
LE MARS *      PTSUNNY   46  34  61 NW14G23   29.71S
ORANGE CITY *  CLOUDY    43  36  75 NW10      29.69S
SHELDON *      CLOUDY    39  32  75 NW13      29.68S WCI  32
SIOUX CITY     SUNNY     50  35  56 NW13G20   29.70F
SPENCER        CLOUDY    39  29  67 W16       29.70R WCI  30
STORM LAKE *     N/A     41  32  70 W18       29.69F
$$

IAZ055>058-069>071-079>083-090>094-272100-
   SOUTHWEST IOWA

CITY           SKY/WX    TMP DP  RH WIND       PRES   REMARKS
ATLANTIC *     MOSUNNY   52  36  54 NW10G17   29.70S
AUDUBON *      MOSUNNY   54  36  50 W8G16     29.70S
CLARINDA *     SUNNY     57  37  47 W10G18    29.72F
COUNCIL BLFS * MOSUNNY   52  36  54 VRB6G12   29.71S
CRESTON *      MOSUNNY   55  37  50 W12G20    29.71S
HARLAN  *      MOSUNNY   52  34  50 W12G17    29.73S
LAMONI         MOSUNNY   55  39  54 SW12      29.70F
RED OAK *      SUNNY     55  34  44 W12       29.70F
SHENANDOAH *   SUNNY     57  34  41 W6G14     29.71F
$$

IAZ047>049-059>061-072>074-084-272100-
   CENTRAL IOWA

CITY           SKY/WX    TMP DP  RH WIND       PRES   REMARKS
AMES           CLOUDY    43  33  68 W15       29.71S
ANKENY *       CLOUDY    48  34  57 NW13G20   29.71S
BOONE *        CLOUDY    43  34  70 W14G21    29.70S
CHARITON *     PTSUNNY   54  39  58 W12G21    29.70F
DES MOINES     PTSUNNY   52  33  48 W9        29.70S
GRINNELL*      CLOUDY    44  33  64 W18       29.72R
KNOXVILLE *    CLOUDY    50  36  57 W9G16     29.69F
MARSHALLTOWN   CLOUDY    42  31  64 W21       29.69S
NEWTON *       CLOUDY    46  32  57 W14G22    29.70S
PELLA *        CLOUDY    48  35  60 W8        29.72S
PERRY *        CLOUDY    51  32  49 NW13G20   29.70F
$$

IAZ004>006-015-016-023>025-035-036-272100-
   NORTH CENTRAL IOWA

CITY           SKY/WX    TMP DP  RH WIND       PRES   REMARKS
ALGONA *       CLOUDY    39  28  65 NW16G25   29.68R WCI  30
CLARION *      CLOUDY    39  30  70 W18       29.69R WCI  30
ESTHERVILLE    CLOUDY    37  30  75 NW18      29.67R WCI  27
FORT DODGE *   CLOUDY    39  28  65 W10G22    29.72R WCI  32
MASON CITY     CLOUDY    37  27  67 W18       29.67R WCI  27
FOREST CITY *  CLOUDY    37  28  70 W16       29.66R WCI  28
WEBSTER CITY * CLOUDY    39  30  70 W16       29.69R WCI  30
IOWA FALLS *   CLOUDY    40  30  69 W20G26    29.70S WCI  30
$$

IAZ007>011-017>019-026>030-037>042-050>054-066-272100-
   NORTHEAST IOWA

CITY           SKY/WX    TMP DP  RH WIND       PRES   REMARKS
CEDAR RAPIDS   CLOUDY    42  35  76 W21       29.68R
CHARLES CITY * CLOUDY    37  30  75 W15G23    29.66R WCI  28
CLINTON *      CLOUDY    42  36  79 W22       29.70R
DECORAH *      CLOUDY    39  30  70 W12G23    29.61R WCI  32
DUBUQUE        CLOUDY    40  32  73 W17       29.64R WCI  31
MONTICELLO *   CLOUDY    41  32  70 W17G28    29.67R
WATERLOO       CLOUDY    40  28  62 W17       29.68R WCI  31
$$

IAZ064-065-067-068-078-272100-
   EAST CENTRAL IOWA

CITY           SKY/WX    TMP DP  RH WIND       PRES   REMARKS
DAVENPORT      CLOUDY    42  34  73 W21G29    29.71R
IOWA CITY      CLOUDY    45  34  65 W20       29.72R
MT. PLEASANT * CLOUDY    47  37  68 W12       29.73S
MUSCATINE *    CLOUDY    45  36  70 W18       29.73R
QUAD CITIES    CLOUDY    45  33  63 W18G28    29.72R
$$

IAZ062-063-075>077-085>089-095>099-272100-
   SOUTHEAST IOWA

CITY           SKY/WX    TMP DP  RH WIND       PRES   REMARKS
BURLINGTON     CLOUDY    49  40  71 W17G23    29.73R
FAIRFIELD *    CLOUDY    48  37  66 W13       29.72S
FORT MADISON * CLOUDY    52  45  76 W8G20     29.75R
KEOKUK *       CLOUDY    52  39  62 SW13G22   29.73S
OSKALOOSA *    CLOUDY    49  37  62 W13G20    29.72S
CENTERVILLE *    N/A     54  39  58 CALM      29.72F
OTTUMWA        CLOUDY    50  38  63 W12       29.71S
WASHINGTON *   CLOUDY    45  36  70 W13G23    29.74R
$$

ABBREVIATIONS USED IN REMARKS
   TC - TEMPERATURES IN CELSIUS
  WCI - WIND CHILL INDEX
   HX - HEAT INDEX
  VSB - VISIBILITY
$$





USA.gov is the U.S. government's official web portal to all federal, state and local government web resources and services.